Radiation Dose at Monitoring Post of Fukushima Daini Nuclear Power Station
Date,Time,MP-1(microSv/h),MP-2(microSv/h),MP-3(microSv/h),MP-4(microSv/h),MP-5(microSv/h),MP-6(microSv/h),MP-7(microSv/h),Wind Direction,Wind Velocity(m/s),Rain
2020/09/28,00:00,0.172,0.153,0.248,0.237,0.241,0.134,0.082,west-northwest,4.3,No
2020/09/28,00:10,0.172,0.153,0.250,0.236,0.240,0.134,0.081,northwest,2.8,No
2020/09/28,00:20,0.172,0.154,0.249,0.237,0.241,0.135,0.081,west-northwest,3.0,No
2020/09/28,00:30,0.172,0.152,0.249,0.237,0.240,0.134,0.081,west-northwest,3.0,No
2020/09/28,00:40,0.171,0.153,0.251,0.237,0.240,0.133,0.081,north-northwest,1.3,No
2020/09/28,00:50,0.172,0.153,0.249,0.237,0.239,0.133,0.081,north-northwest,1.3,No
2020/09/28,01:00,0.171,0.153,0.250,0.238,0.241,0.133,0.081,north,0.7,No
2020/09/28,01:10,0.171,0.152,0.249,0.236,0.239,0.134,0.081,northwest,1.2,No
2020/09/28,01:20,0.171,0.152,0.249,0.238,0.240,0.133,0.081,west-northwest,4.3,No
2020/09/28,01:30,0.172,0.154,0.248,0.237,0.240,0.134,0.081,west-northwest,2.7,No
2020/09/28,01:40,0.171,0.151,0.250,0.237,0.241,0.133,0.081,northwest,1.9,No
2020/09/28,01:50,0.173,0.152,0.251,0.237,0.241,0.134,0.081,west,2.0,No
2020/09/28,02:00,0.171,0.152,0.249,0.238,0.240,0.133,0.081,west,5.5,No
2020/09/28,02:10,0.173,0.153,0.250,0.237,0.240,0.134,0.081,west,4.2,No
2020/09/28,02:20,0.171,0.152,0.249,0.237,0.240,0.133,0.082,west-northwest,3.0,No
2020/09/28,02:30,0.172,0.152,0.250,0.237,0.240,0.134,0.081,north,0.8,No
2020/09/28,02:40,0.171,0.153,0.250,0.236,0.239,0.134,0.081,north-northeast,1.3,No
2020/09/28,02:50,0.171,0.154,0.249,0.238,0.241,0.134,0.081,north-northwest,1.3,No
2020/09/28,03:00,0.172,0.153,0.249,0.236,0.239,0.134,0.081,west-northwest,2.9,No
2020/09/28,03:10,0.171,0.154,0.250,0.238,0.242,0.133,0.082,north-northwest,2.3,No
2020/09/28,03:20,0.172,0.153,0.250,0.237,0.239,0.134,0.081,west-northwest,3.8,No
2020/09/28,03:30,0.171,0.153,0.249,0.237,0.240,0.133,0.081,west-northwest,4.9,No
2020/09/28,03:40,0.171,0.153,0.251,0.237,0.239,0.134,0.081,northwest,3.1,No
2020/09/28,03:50,0.171,0.152,0.249,0.236,0.242,0.134,0.081,north-northwest,2.0,No
2020/09/28,04:00,0.172,0.152,0.250,0.238,0.240,0.134,0.081,northwest,3.3,No
2020/09/28,04:10,0.172,0.152,0.251,0.236,0.241,0.133,0.081,northwest,4.4,No
2020/09/28,04:20,0.172,0.152,0.250,0.238,0.239,0.134,0.080,west-northwest,4.5,No
2020/09/28,04:30,0.172,0.153,0.250,0.237,0.241,0.133,0.081,west-northwest,5.7,No
2020/09/28,04:40,0.171,0.152,0.248,0.237,0.240,0.134,0.081,west-northwest,4.3,No
2020/09/28,04:50,0.172,0.153,0.250,0.237,0.241,0.133,0.081,west-northwest,4.0,No
2020/09/28,05:00,0.171,0.152,0.249,0.237,0.240,0.133,0.080,west-northwest,4.6,No
2020/09/28,05:10,0.172,0.153,0.248,0.237,0.240,0.134,0.081,west-northwest,4.5,No
2020/09/28,05:20,0.171,0.153,0.251,0.237,0.240,0.133,0.081,west-northwest,5.3,No
2020/09/28,05:30,0.171,0.152,0.249,0.237,0.239,0.133,0.081,west-northwest,3.6,No
2020/09/28,05:40,0.172,0.154,0.249,0.238,0.241,0.133,0.081,west-northwest,2.4,No
2020/09/28,05:50,0.172,0.153,0.250,0.236,0.239,0.133,0.081,west,2.7,No
2020/09/28,06:00,0.172,0.153,0.248,0.237,0.241,0.134,0.081,north-northwest,1.6,No
2020/09/28,06:10,0.172,0.153,0.250,0.236,0.238,0.133,0.081,north-northeast,3.3,No
2020/09/28,06:20,0.173,0.152,0.249,0.238,0.241,0.134,0.081,north-northwest,4.4,No
2020/09/28,06:30,0.172,0.152,0.250,0.237,0.239,0.133,0.080,north-northwest,5.6,No
2020/09/28,06:40,0.172,0.152,0.248,0.238,0.242,0.133,0.081,northwest,6.9,No
2020/09/28,06:50,0.172,0.153,0.250,0.236,0.238,0.133,0.081,northwest,8.8,No
2020/09/28,07:00,0.172,0.153,0.249,0.237,0.242,0.134,0.080,northwest,7.9,No
2020/09/28,07:10,0.172,0.153,0.249,0.235,0.238,0.133,0.081,northwest,7.6,No
2020/09/28,07:20,0.172,0.153,0.249,0.237,0.242,0.133,0.080,northwest,7.3,No
2020/09/28,07:30,0.171,0.152,0.250,0.235,0.240,0.134,0.081,northwest,6.7,No
2020/09/28,07:40,0.171,0.152,0.249,0.237,0.240,0.133,0.081,northwest,5.8,No
2020/09/28,07:50,0.172,0.152,0.249,0.237,0.240,0.134,0.081,north-northwest,4.0,No
2020/09/28,08:00,0.172,0.152,0.249,0.238,0.239,0.133,0.080,north-northwest,4.5,No
2020/09/28,08:10,0.173,0.153,0.249,0.238,0.241,0.134,0.080,north-northwest,5.3,No
2020/09/28,08:20,0.171,0.153,0.248,0.235,0.239,0.134,0.080,north-northwest,5.2,No
2020/09/28,08:30,0.172,0.152,0.251,0.235,0.241,0.133,0.080,north-northwest,6.6,No
2020/09/28,08:40,0.171,0.152,0.248,0.238,0.240,0.134,0.080,north-northwest,6.3,No
2020/09/28,08:50,0.172,0.154,0.246,0.235,0.237,0.133,0.080,north-northwest,5.8,No
2020/09/28,09:00,0.173,0.153,0.251,0.234,0.241,0.133,0.080,north-northwest,6.5,No
2020/09/28,09:10,0.171,0.153,0.250,0.235,0.240,0.134,0.080,north,4.7,No
2020/09/28,09:20,0.170,0.152,0.248,0.238,0.238,0.133,0.080,north-northwest,4.4,No
2020/09/28,09:30,0.170,0.153,0.248,0.237,0.237,0.133,0.080,north,4.4,No
2020/09/28,09:40,0.169,0.154,0.250,0.236,0.237,0.132,0.080,north-northeast,2.7,No
2020/09/28,09:50,0.172,0.153,0.250,0.236,0.242,0.133,0.081,north-northeast,3.1,No
2020/09/28,10:00,0.172,0.152,0.249,0.234,0.243,0.133,0.081,north-northeast,2.7,No
2020/09/28,10:10,0.172,0.154,0.251,0.236,0.240,0.134,0.081,north-northeast,3.5,No
2020/09/28,10:20,0.170,0.154,0.251,0.239,0.238,0.134,0.082,north-northeast,4.0,No
2020/09/28,10:30,0.170,0.154,0.249,0.239,0.239,0.135,0.082,northeast,3.8,No
2020/09/28,10:40,0.170,0.153,0.248,0.237,0.237,0.135,0.081,northeast,3.8,No
2020/09/28,10:50,0.170,0.151,0.247,0.237,0.237,0.134,0.081,north,4.0,No
2020/09/28,11:00,0.172,0.152,0.247,0.237,0.241,0.134,0.080,north-northwest,5.9,No
2020/09/28,11:10,0.173,0.155,0.253,0.235,0.243,0.134,0.080,north-northeast,6.2,No
2020/09/28,11:20,0.171,0.153,0.251,0.236,0.242,0.134,0.081,north-northeast,6.3,No
2020/09/28,11:30,0.171,0.153,0.250,0.235,0.241,0.134,0.080,north-northeast,7.2,No
2020/09/28,11:40,0.173,0.152,0.249,0.236,0.239,0.134,0.081,north-northeast,6.4,No
2020/09/28,11:50,0.174,0.155,0.248,0.240,0.239,0.134,0.082,north-northeast,7.3,No
2020/09/28,12:00,0.172,0.154,0.252,0.240,0.240,0.135,0.081,north,7.1,Yes
2020/09/28,12:10,0.172,0.153,0.252,0.237,0.244,0.135,0.081,north-northeast,7.0,No
2020/09/28,12:20,0.173,0.153,0.249,0.236,0.242,0.133,0.081,north,5.8,No
2020/09/28,12:30,0.171,0.154,0.249,0.235,0.241,0.134,0.081,north-northeast,6.1,No
2020/09/28,12:40,0.171,0.153,0.252,0.240,0.240,0.134,0.081,north-northeast,7.1,No
2020/09/28,12:50,0.174,0.153,0.251,0.239,0.238,0.135,0.081,north-northeast,5.9,No
2020/09/28,13:00,0.173,0.155,0.249,0.238,0.242,0.134,0.081,north-northeast,6.4,No
2020/09/28,13:10,0.172,0.154,0.252,0.237,0.243,0.134,0.081,northeast,6.6,No
2020/09/28,13:20,0.173,0.153,0.252,0.239,0.240,0.134,0.081,north-northeast,4.7,No
2020/09/28,13:30,0.172,0.155,0.251,0.239,0.238,0.135,0.081,north-northeast,5.7,No
2020/09/28,13:40,0.171,0.153,0.250,0.239,0.241,0.135,0.081,north-northeast,5.0,No
2020/09/28,13:50,0.171,0.153,0.252,0.236,0.243,0.135,0.081,northeast,6.0,No
2020/09/28,14:00,0.173,0.155,0.251,0.239,0.240,0.133,0.080,north-northeast,6.4,No
2020/09/28,14:10,0.172,0.154,0.249,0.239,0.240,0.134,0.081,north-northeast,5.1,No
2020/09/28,14:20,0.171,0.153,0.253,0.237,0.238,0.135,0.081,north-northeast,6.2,No
2020/09/28,14:30,0.174,0.153,0.251,0.237,0.243,0.135,0.081,north-northeast,5.0,No
2020/09/28,14:40,0.173,0.155,0.250,0.237,0.242,0.135,0.081,north-northeast,5.5,No
2020/09/28,14:50,0.171,0.153,0.250,0.240,0.240,0.134,0.081,north-northeast,4.1,No
2020/09/28,15:00,0.172,0.153,0.254,0.239,0.240,0.134,0.082,northeast,3.5,No
2020/09/28,15:10,0.171,0.154,0.250,0.239,0.243,0.134,0.081,north-northeast,3.1,No
2020/09/28,15:20,0.174,0.153,0.254,0.242,0.241,0.135,0.081,north-northeast,3.2,No
2020/09/28,15:30,0.172,0.154,0.252,0.239,0.239,0.135,0.081,north-northeast,3.4,No
2020/09/28,15:40,0.172,0.154,0.252,0.240,0.241,0.135,0.081,north-northeast,3.9,No
2020/09/28,15:50,0.174,0.154,0.253,0.241,0.242,0.134,0.081,north-northeast,3.2,No
2020/09/28,16:00,0.172,0.154,0.252,0.239,0.241,0.135,0.082,north-northeast,3.5,No
2020/09/28,16:10,0.174,0.154,0.254,0.240,0.243,0.135,0.082,north-northeast,3.6,No
2020/09/28,16:20,0.173,0.153,0.250,0.238,0.240,0.134,0.082,north-northeast,4.5,No
2020/09/28,16:30,0.172,0.154,0.251,0.238,0.240,0.134,0.081,north-northeast,4.9,No
2020/09/28,16:40,0.174,0.152,0.252,0.240,0.239,0.135,0.081,north-northeast,3.6,No
2020/09/28,16:50,0.174,0.155,0.251,0.237,0.243,0.134,0.082,north,4.9,No
2020/09/28,17:00,0.171,0.155,0.254,0.240,0.241,0.136,0.081,north,3.8,No
2020/09/28,17:10,0.175,0.154,0.251,0.238,0.241,0.134,0.082,north,4.8,No
2020/09/28,17:20,0.172,0.154,0.253,0.240,0.243,0.136,0.081,north-northeast,3.6,No
2020/09/28,17:30,0.172,0.154,0.252,0.239,0.242,0.135,0.082,northeast,3.0,No
2020/09/28,17:40,0.174,0.155,0.252,0.238,0.243,0.134,0.081,northeast,2.4,No
2020/09/28,17:50,0.171,0.155,0.253,0.240,0.243,0.136,0.081,east-northeast,1.9,No
2020/09/28,18:00,0.174,0.155,0.252,0.239,0.241,0.135,0.081,east,2.9,No
2020/09/28,18:10,0.171,0.153,0.253,0.241,0.243,0.135,0.081,east-northeast,3.9,No
2020/09/28,18:20,0.175,0.155,0.252,0.239,0.241,0.135,0.082,east-northeast,3.7,No
2020/09/28,18:30,0.173,0.154,0.254,0.242,0.243,0.135,0.082,east-northeast,3.0,No
2020/09/28,18:40,0.173,0.154,0.253,0.239,0.240,0.135,0.082,east,3.7,No
2020/09/28,18:50,0.173,0.153,0.252,0.240,0.242,0.135,0.082,east,4.8,No
2020/09/28,19:00,0.173,0.155,0.251,0.238,0.241,0.135,0.081,east,3.7,No
2020/09/28,19:10,0.173,0.153,0.253,0.240,0.242,0.135,0.082,east-northeast,3.8,No
2020/09/28,19:20,0.172,0.155,0.251,0.238,0.243,0.135,0.081,east,4.9,No
2020/09/28,19:30,0.174,0.153,0.253,0.240,0.239,0.135,0.082,east-northeast,4.4,No
2020/09/28,19:40,0.173,0.155,0.251,0.239,0.243,0.136,0.082,east-northeast,4.3,No
2020/09/28,19:50,0.173,0.155,0.253,0.238,0.240,0.135,0.082,east-northeast,4.5,No
2020/09/28,20:00,0.173,0.154,0.251,0.240,0.243,0.135,0.082,east,4.2,No
2020/09/28,20:10,0.173,0.154,0.252,0.239,0.240,0.135,0.081,east,5.4,No
2020/09/28,20:20,0.173,0.153,0.253,0.241,0.241,0.134,0.082,east,3.3,No
2020/09/28,20:30,0.172,0.155,0.252,0.238,0.243,0.135,0.082,east-northeast,4.1,No
2020/09/28,20:40,0.173,0.154,0.253,0.240,0.240,0.135,0.081,east-northeast,4.6,No
2020/09/28,20:50,0.173,0.155,0.252,0.239,0.242,0.135,0.081,east-northeast,4.2,No
2020/09/28,21:00,0.174,0.154,0.253,0.239,0.241,0.135,0.082,east-northeast,4.3,No
2020/09/28,21:10,0.174,0.154,0.252,0.240,0.242,0.135,0.082,east-northeast,2.8,No
2020/09/28,21:20,0.173,0.155,0.254,0.240,0.242,0.135,0.081,north-northwest,3.0,Yes
2020/09/28,21:30,0.174,0.155,0.251,0.241,0.241,0.135,0.081,north-northwest,3.6,Yes
2020/09/28,21:40,0.173,0.154,0.253,0.239,0.243,0.136,0.082,north-northwest,3.1,Yes
2020/09/28,21:50,0.174,0.155,0.251,0.240,0.240,0.135,0.083,north-northwest,3.2,Yes
2020/09/28,22:00,0.173,0.155,0.254,0.239,0.243,0.136,0.082,northwest,4.6,Yes
2020/09/28,22:10,0.174,0.156,0.252,0.240,0.240,0.135,0.082,north,2.7,Yes
2020/09/28,22:20,0.174,0.155,0.253,0.239,0.242,0.136,0.082,north-northeast,1.5,Yes
2020/09/28,22:30,0.174,0.156,0.251,0.240,0.240,0.135,0.082,northeast,1.1,Yes
2020/09/28,22:40,0.174,0.155,0.252,0.237,0.242,0.135,0.081,north-northeast,2.3,Yes
2020/09/28,22:50,0.173,0.156,0.249,0.241,0.241,0.136,0.082,north-northeast,3.8,Yes
2020/09/28,23:00,0.175,0.154,0.252,0.236,0.242,0.134,0.081,north-northeast,2.1,Yes
2020/09/28,23:10,0.173,0.156,0.250,0.239,0.241,0.135,0.082,north-northeast,1.3,Yes
2020/09/28,23:20,0.175,0.154,0.251,0.238,0.242,0.134,0.082,east-northeast,1.1,Yes
2020/09/28,23:30,0.173,0.154,0.249,0.240,0.240,0.135,0.082,east-northeast,1.0,No
2020/09/28,23:40,0.173,0.155,0.251,0.238,0.242,0.135,0.081,east-southeast,1.7,No
2020/09/28,23:50,0.172,0.156,0.248,0.239,0.240,0.135,0.081,northeast,1.8,Yes
